Weather in Ploieşti

Romania     44°56′17″N   26°02′21″E
temp.,
°C
wind,
m/s
gust,
m/s
humid.,
%
clouds,
%
prec.,
mm/h
press.,
hPa
HPBL,
m
18 april, sun
sun1800:00+8ne126090 0.0 1017108
03:00+6ese237999 0.0 1018168
06:00+7nne2477100 0.0 1017220
09:00+8ene4870100 0.0 1017636
12:00+9ene4656100 0.1 10171283
15:00+10ene3456100 0.3 10171324
18:00+8nne3478100 0.8 1018434
21:00+7nne2380100 0.8 1018182
19 april, mon
mon1900:00+7n2280100 0.0 1018110
03:00+7ne1180100 0.0 101863
06:00+7n1282100 0.0 101643
09:00+8nne1274100 0.0 1016326
12:00+11e2363100 0.0 10141070
15:00+11e2272100 0.5 10141025
18:00+10n3580100 0.3 1012344
21:00+9nnw2486100 1.2 1011204
20 april, tue
tue2000:00+8n2490100 1.0 1010227
03:00+8nw2590100 2.5 1008196
06:00+8wnw2591100 0.6 1007189
09:00+9nnw2379100 1.0 1008303
12:00+12nw2462100 0.1 10091138
15:00+14w1254100 0.8 10091245
18:00+14ese226176 1.3 1010768
21:00+10nne2478100 2.0 1012156
21 april, wed
wed2100:00+9e1280100 0.2 101360
03:00+8ne2486100 0.8 1014154
06:00+8nne2285100 0.0 101453
09:00+10ne1176100 0.0 1015330
12:00+12ne226386 0.9 10161010
15:00+15wsw235260 2.1 10151579
18:00+14w455957 1.6 10151237
21:00+10wnw227518 1.6 101725
22 april, thu
thu2200:00+8nnw22785 0.0 101941
03:00+7n23760 0.0 101942
06:00+6nw11773 0.0 102015
09:00+11n11610 0.0 1020229
12:00+16ssw22470 0.0 10201163
15:00+18ssw33417 0.0 10192101
18:00+17ssw33424 0.0 10191686
21:00+13sw11576 0.0 102011